Weather History for Wahoo, NE

Change the Weather History Date:

Wednesday, October 12, 2011

  Actual Average Record
Temperature  
Mean Temperature 60 °F -  
Max Temperature 69 °F 69 °F 89 °F (1975)
Min Temperature 51 °F 40 °F 22 °F (1987)
Degree Days  
Heating Degree Days 5    
Growing Degree Days 10 (Base 50)    
Moisture  
Dew Point 53 °F    
Average Humidity 78    
Maximum Humidity 100    
Minimum Humidity 49    
Precipitation  
Precipitation 0.17 in - - ()
Sea Level Pressure  
Sea Level Pressure 29.73 in    
Wind  
Wind Speed 4 mph (NNW)    
Max Wind Speed 20 mph    
Max Gust Speed 30 mph    
Visibility 10 miles    
Events Rain    
Averages and records for this station are not official NWS values.
T = Trace of Precipitation, MM = Missing Value Source: NWS Daily Summary

Daily Weather History Graph

Daily Weather History Graph

Search for Another Location

Airport:

Trip Planner

Search our weather history database for the weather conditions in past years. The results will help you decide how hot, cold, wet, or windy it might be!

Date:

Astronomy

Oct. 12, 2011 Rise Set
Actual Time 7:34 AM CDT 6:50 PM CDT
Civil Twilight 7:06 AM CDT 7:18 PM CDT
Nautical Twilight 6:34 AM CDT 7:50 PM CDT
Astronomical Twilight 6:02 AM CDT 8:22 PM CDT
Moon 6:52 PM CDT (10/12) 8:11 AM CDT (10/12)
Length of Visible Light 12h 11m
Length of Day
11h 16m
Full, 100% of the Moon is Illuminated
Oct 12
Full
Oct 19
Last Quarter
Oct 26
New
Nov 2
First Quarter
Nov 10
Full

Hourly Weather History & Observations

Time (CDT) Temp. Dew Point Humidity Pressure Visibility Wind Dir Wind Speed Gust Speed Precip Events Conditions
12:15 AM 60.8 °F 51.8 °F 72% 29.75 in 10.0 mi Calm Calm - N/A   Overcast
12:35 AM 62.6 °F 51.8 °F 68% 29.75 in 10.0 mi Calm Calm - N/A   Overcast
1:15 AM 60.8 °F 53.6 °F 77% 29.74 in 10.0 mi Calm Calm - N/A Rain Light Rain
1:35 AM 59.0 °F 53.6 °F 82% 29.73 in 10.0 mi SE 4.6 mph - N/A   Overcast
1:55 AM 59.0 °F 53.6 °F 82% 29.72 in 10.0 mi SE 8.1 mph - N/A   Overcast
2:35 AM 59.0 °F 53.6 °F 82% 29.73 in 10.0 mi Calm Calm - N/A   Overcast
2:55 AM 59.0 °F 53.6 °F 82% 29.73 in 10.0 mi Calm Calm - N/A   Overcast
3:15 AM 59.0 °F 53.6 °F 82% 29.74 in 10.0 mi NW 5.8 mph - N/A Rain Light Rain
3:35 AM 59.0 °F 55.4 °F 88% 29.73 in 10.0 mi North 5.8 mph - 0.01 in Rain Rain
3:55 AM 57.2 °F 55.4 °F 94% 29.73 in 7.0 mi North 5.8 mph - 0.08 in Rain Rain
4:15 AM 57.2 °F 55.4 °F 94% 29.72 in 7.0 mi North 5.8 mph - 0.03 in Rain Light Rain
4:35 AM 57.2 °F 55.4 °F 94% 29.71 in 5.0 mi ESE 5.8 mph - 0.08 in Rain Rain
4:55 AM 57.2 °F 55.4 °F 94% 29.70 in 10.0 mi SSE 10.4 mph - 0.09 in Rain Light Rain
5:15 AM 59.0 °F 55.4 °F 88% 29.70 in 10.0 mi SE 9.2 mph - N/A Rain Light Rain
5:35 AM 57.2 °F 53.6 °F 88% 29.70 in 10.0 mi South 5.8 mph - N/A   Scattered Clouds
5:55 AM 55.4 °F 53.6 °F 94% 29.70 in 10.0 mi Calm Calm - N/A   Scattered Clouds
6:15 AM 55.4 °F 53.6 °F 94% 29.70 in 10.0 mi Calm Calm - N/A   Clear
6:35 AM 55.4 °F 53.6 °F 94% 29.69 in 10.0 mi Calm Calm - N/A   Clear
6:55 AM 53.6 °F 51.8 °F 94% 29.69 in 10.0 mi ESE 3.5 mph - N/A   Clear
7:15 AM 53.6 °F 51.8 °F 94% 29.69 in 10.0 mi Calm Calm - N/A   Clear
7:35 AM 51.8 °F 51.8 °F 100% 29.69 in 2.5 mi Calm Calm - N/A   Clear
8:15 AM 53.6 °F 53.6 °F 100% 29.69 in 7.0 mi Calm Calm - N/A   Mostly Cloudy
8:35 AM 55.4 °F 53.6 °F 94% 29.70 in 10.0 mi Calm Calm - N/A   Overcast
8:55 AM 55.4 °F 53.6 °F 94% 29.70 in 10.0 mi Calm Calm - N/A   Overcast
9:15 AM 55.4 °F 55.4 °F 100% 29.71 in 10.0 mi Calm Calm - N/A   Overcast
9:35 AM 57.2 °F 55.4 °F 94% 29.71 in 10.0 mi Calm Calm - N/A   Overcast
9:55 AM 59.0 °F 55.4 °F 88% 29.71 in 10.0 mi Calm Calm - N/A   Overcast
10:15 AM 59.0 °F 55.4 °F 88% 29.72 in 10.0 mi Calm Calm - N/A   Overcast
10:35 AM 59.0 °F 55.4 °F 88% 29.72 in 10.0 mi Calm Calm - N/A   Overcast
10:55 AM 59.0 °F 55.4 °F 88% 29.73 in 10.0 mi Calm Calm - N/A   Overcast
11:15 AM 59.0 °F 55.4 °F 88% 29.73 in 5.0 mi Calm Calm - N/A   Overcast
11:35 AM 59.0 °F 55.4 °F 88% 29.73 in 5.0 mi Calm Calm - N/A   Overcast
11:55 AM 59.0 °F 55.4 °F 88% 29.73 in 10.0 mi Calm Calm - N/A   Overcast
12:15 PM 59.0 °F 57.2 °F 94% 29.74 in 10.0 mi Calm Calm - N/A   Overcast
12:35 PM 59.0 °F 55.4 °F 88% 29.74 in 10.0 mi North 4.6 mph - N/A   Overcast
12:55 PM 60.8 °F 57.2 °F 88% 29.74 in 10.0 mi North 3.5 mph - N/A   Overcast
1:15 PM 60.8 °F 57.2 °F 88% 29.74 in 10.0 mi North 5.8 mph - N/A   Overcast
1:35 PM 62.6 °F 57.2 °F 82% 29.73 in 10.0 mi North 5.8 mph - N/A   Overcast
2:15 PM 62.6 °F 55.4 °F 77% 29.73 in 10.0 mi NW 5.8 mph - N/A   Overcast
2:35 PM 62.6 °F 55.4 °F 77% 29.73 in 10.0 mi NW 6.9 mph - N/A   Overcast
2:55 PM 64.4 °F 57.2 °F 77% 29.72 in 10.0 mi WNW 6.9 mph - N/A   Overcast
3:15 PM 64.4 °F 55.4 °F 73% 29.72 in 10.0 mi NNW 5.8 mph - N/A   Overcast
3:35 PM 64.4 °F 55.4 °F 73% 29.72 in 10.0 mi NW 4.6 mph - N/A   Overcast
3:55 PM 66.2 °F 55.4 °F 68% 29.71 in 10.0 mi NW 9.2 mph - N/A   Overcast
4:15 PM 69.8 °F 55.4 °F 60% 29.71 in 10.0 mi NNW 18.4 mph 24.2 mph N/A   Overcast
4:35 PM 69.8 °F 51.8 °F 53% 29.71 in 10.0 mi North 19.6 mph 29.9 mph N/A   Mostly Cloudy
4:55 PM 68.0 °F 50.0 °F 52% 29.71 in 10.0 mi NNW 12.7 mph 25.3 mph N/A   Clear
5:15 PM 66.2 °F 46.4 °F 49% 29.72 in 10.0 mi NNW 13.8 mph 27.6 mph N/A   Scattered Clouds
5:35 PM 68.0 °F 50.0 °F 52% 29.73 in 10.0 mi NW 10.4 mph - N/A   Mostly Cloudy
5:55 PM 68.0 °F 50.0 °F 52% 29.73 in 10.0 mi NNW 17.3 mph 23.0 mph N/A   Mostly Cloudy
6:15 PM 66.2 °F 46.4 °F 49% 29.74 in 10.0 mi NNW 16.1 mph 24.2 mph N/A   Scattered Clouds
6:35 PM 64.4 °F 46.4 °F 52% 29.76 in 10.0 mi NNW 13.8 mph - N/A   Clear
6:55 PM 62.6 °F 46.4 °F 55% 29.76 in 10.0 mi NNW 9.2 mph - N/A   Clear
7:15 PM 60.8 °F 48.2 °F 63% 29.77 in 10.0 mi NW 8.1 mph - N/A   Clear
7:35 PM 60.8 °F 46.4 °F 59% 29.78 in 10.0 mi NW 10.4 mph - N/A   Clear
7:55 PM 60.8 °F 46.4 °F 59% 29.79 in 10.0 mi NW 10.4 mph - N/A   Clear
8:15 PM 60.8 °F 46.4 °F 59% 29.79 in 10.0 mi NW 9.2 mph - N/A   Clear
8:35 PM 59.0 °F 44.6 °F 59% 29.80 in 10.0 mi NW 10.4 mph - N/A   Clear
8:55 PM 59.0 °F 46.4 °F 63% 29.80 in 10.0 mi NW 12.7 mph - N/A   Clear
9:15 PM 59.0 °F 46.4 °F 63% 29.80 in 10.0 mi NW 9.2 mph - N/A   Clear
9:35 PM 59.0 °F 46.4 °F 63% 29.80 in 10.0 mi NW 12.7 mph 18.4 mph N/A   Clear
9:55 PM 59.0 °F 44.6 °F 59% 29.81 in 10.0 mi NW 11.5 mph - N/A   Clear
10:15 PM 59.0 °F 44.6 °F 59% 29.81 in 10.0 mi NW 9.2 mph - N/A   Clear
10:35 PM 57.2 °F 44.6 °F 63% 29.81 in 10.0 mi NW 11.5 mph 17.3 mph N/A   Clear
10:55 PM 57.2 °F 44.6 °F 63% 29.81 in 10.0 mi NW 11.5 mph 18.4 mph N/A   Clear
11:15 PM 57.2 °F 44.6 °F 63% 29.81 in 10.0 mi NW 12.7 mph 17.3 mph N/A   Clear
11:35 PM 57.2 °F 44.6 °F 63% 29.81 in 10.0 mi NW 12.7 mph - N/A   Clear
11:55 PM 57.2 °F 44.6 °F 63% 29.81 in 10.0 mi NW 11.5 mph 19.6 mph N/A   Clear